Location: Kalisz
(51.7636°N, 18.0893°E)
Time: 07:17:15
(UTC+02:00)

ISS - Visible Passes

Search period start: 20 September 2018 00:00
Search period end: 30 September 2018 00:00
Orbit: 402 x 408 km, 51.6° (Epoch: 20 September)

Date Brightness Start Highest point End Pass type
(mag) Time Alt. Az. Time Alt. Az. Time Alt. Az.
22 Sep -1.6 20:27:43 10° SSW 20:28:33 14° S 20:28:33 14° S visible
23 Sep -1.7 19:36:52 10° SSE 19:38:23 13° SE 19:39:12 12° ESE visible
23 Sep -1.4 21:11:07 10° SW 21:11:54 16° SW 21:11:54 16° SW visible
24 Sep -3.0 20:19:23 10° SW 20:22:20 33° SSE 20:22:20 33° SSE visible
25 Sep -2.4 19:27:52 10° SSW 19:30:31 22° SSE 19:32:36 13° E visible
25 Sep -2.3 21:03:22 10° WSW 21:05:17 31° WSW 21:05:17 31° WSW visible
26 Sep -3.6 20:11:26 10° WSW 20:14:39 52° SSE 20:15:26 41° ESE visible
26 Sep -0.7 21:47:47 10° W 21:48:06 12° W 21:48:06 12° W visible
27 Sep -3.1 19:19:36 10° SW 19:22:41 37° SSE 19:25:29 12° E visible
27 Sep -2.9 20:55:43 10° W 20:58:09 46° W 20:58:09 46° W visible
28 Sep -3.9 20:03:40 10° WSW 20:06:58 75° SSE 20:08:07 37° E visible
28 Sep -0.8 21:40:09 10° W 21:40:47 15° W 21:40:47 15° W visible
29 Sep -3.6 19:11:40 10° WSW 19:14:55 59° SSE 19:18:02 11° E visible
29 Sep -3.1 20:48:04 10° W 20:50:42 54° W 20:50:42 54° W visible
